sat.trackr.live / text

‹ back to catalog

STARLINK-35862

NORAD 66628 · 2025-271M

PAYLOAD ACTIVE UNKNOWN

§ Identity

Operator
Country
US
Launch date
2025-11-23
Launch site
AFWTR
Launch vehicle
Mass (kg)
RCS (m²)

Purposes: comms

External: N2YO · Heavens-Above · Gunter

§ Orbital elements

Epoch: 2026-09-20T10:26:17.076768Z

Period
93.85 min
Inclination
53.1600°
Eccentricity
0.0001072
Mean motion
15.34402684 rev/d
Perigee alt
462.0 km
Apogee alt
463.4 km
Semi-major
6,840.8 km
B*
3.1564e-4
RAAN
310.3542°
Arg perigee
80.9146°
Mean anomaly
279.1978°
Rev number
4,745

§ Raw data

STARLINK-358621 66628U 25271M   26263.43491987  .00010304  00000+0  31564-3 0  99982 66628  53.1600 310.3542 0001072  80.9146 279.1978 15.34402684 47451

JSON: /api/v1/satellites/66628 · /tle

For live sub-satellite position, see the globe view (requires WebGL).

§ Visibility from observer

Set your observer location to see the next 7 days of passes ≥ 10°. The values pass through the URL so the page stays shareable.

No JS? Fill the form by hand. The geolocation button needs JavaScript.